Wind_Gust
11 10 10 17 15 15 17 15 16 15 15 12 11 11 10 9 12 15 13 12 11 11 12 12 10 11 12 13 13 14 14 13 13 12 12 12 12 12 11 11 11 12 10 10 9 9 10 10 10 11 8 9 10 10 10 10 9 10 9 9 11 10 12 14 15 20 18 9 12 16 17 16 20 13 12 11 11 15 11 13 15 15 16 17 18
13 10 13 20 16 15 13 13 15 15 16 18 17 16 16 14 12 13 11 13 13 12 13 12 11 11 13 13 14 14 14 14 14 14 15 14 13 14 12 12 12 13 11 11 12 13 11 12 13 12 11 13 11 12 12 11 12 11 12 13 13 13 10 14 14 13 21 13 14 12 14 12 17 12 13 14 12 13 14 13 13 14 16 16 16
14 18 19 20 17 13 12 12 11 11 16 17 15 15 16 8 7 5 6 8 8 11 13 13 11 12 12 11 13 14 16 16 15 14 15 14 15 13 14 14 15 15 13 14 14 13 12 12 14 13 10 10 12 13 12 12 12 14 15 14 15 16 16 15 15 16 16 21 13 14 13 13 14 18 14 14 14 12 14 15 16 16 17 15 17
12 13 16 12 12 11 10 16 10 12 12 11 13 13 10 10 7 9 10 7 9 7 10 11 12 12 14 15 14 13 13 13 13 15 18 18 17 17 17 17 16 16 15 15 14 13 14 14 15 13 12 12 13 13 12 12 12 13 13 12 12 15 16 14 15 18 17 18 13 16 15 12 17 18 19 15 15 13 13 16 17 18 18 17 18
18 17 17 17 17 18 17 19 17 16 16 13 12 11 11 12 10 10 9 10 9 9 8 8 10 8 10 11 12 13 15 15 14 13 16 17 19 18 18 17 17 17 16 15 12 14 14 16 17 14 12 14 14 13 13 11 14 13 14 14 14 15 13 12 14 13 15 18 19 14 12 16 18 16 13 14 17 19 15 15 14 17 19 17 16
21 21 19 17 16 17 16 17 16 15 20 22 22 19 14 10 9 11 13 13 11 10 11 13 10 13 12 12 17 16 13 15 16 16 14 13 14 13 14 15 16 17 16 15 15 14 14 14 15 13 13 15 16 15 14 14 13 13 14 15 15 14 13 13 12 12 13 17 15 19 9 16 15 18 15 14 14 17 15 16 15 18 16 14 17
19 22 19 14 12 14 20 20 22 20 22 20 15 14 16 15 13 15 13 12 11 12 11 14 14 14 11 12 16 17 14 11 12 13 14 11 13 12 14 15 16 16 16 16 16 16 15 14 14 14 15 15 15 16 16 15 15 15 16 16 15 13 15 16 15 13 14 16 16 15 16 13 14 20 18 13 16 17 20 18 20 17 13 12 14
16 17 16 16 15 12 13 15 17 22 20 17 15 14 12 11 12 12 10 13 15 15 15 16 10 12 15 14 15 16 9 12 14 19 22 11 12 16 17 13 15 14 12 13 14 13 14 15 15 14 14 14 13 14 16 17 15 15 16 14 13 13 14 15 13 14 14 15 17 21 15 16 14 16 16 12 15 16 18 17 18 20 18 14 14
18 19 15 13 13 12 15 18 17 18 20 18 14 12 12 14 13 12 10 10 11 15 15 10 7 12 16 17 14 14 13 12 9 13 11 10 16 21 19 17 12 11 12 12 11 13 15 15 15 16 16 16 16 13 12 14 16 17 17 14 15 16 17 16 16 16 16 15 18 16 16 15 17 15 15 16 17 23 18 13 21 20 18 16 19
10 9 9 8 10 10 12 12 8 8 7 8 12 11 11 11 9 8 9 7 11 11 10 4 8 12 13 6 8 11 13 12 12 11 8 9 8 12 14 14 13 12 11 11 12 12 13 14 17 18 19 19 19 18 16 15 16 18 19 16 17 20 21 19 18 18 17 18 20 20 17 21 22 18 17 16 17 14 21 22 22 19 21 22 20
13 12 13 13 13 12 13 12 14 13 10 7 8 10 10 10 11 11 11 8 6 8 7 9 7 7 8 10 11 15 13 15 18 15 13 9 8 10 11 12 13 13 13 11 10 12 12 16 17 18 20 19 24 22 22 23 21 22 23 22 19 22 18 19 21 19 20 21 21 18 20 23 23 19 17 22 16 17 20 18 21 20 24 24 29
12 13 14 12 15 16 15 15 15 12 11 11 11 9 9 10 11 9 8 9 8 9 9 10 9 8 11 15 15 14 14 19 17 15 13 11 9 10 9 11 10 11 11 12 11 10 10 12 12 16 14 15 17 18 20 22 23 23 23 22 22 23 21 24 23 22 23 23 21 21 20 23 23 17 20 17 19 20 20 20 20 22 21 21 21
15 14 11 12 13 12 12 12 12 11 10 9 10 10 10 11 12 12 12 10 10 13 12 13 13 14 17 16 16 16 17 19 17 15 12 11 9 8 8 8 10 11 12 13 13 12 11 10 11 13 20 16 16 12 12 12 15 23 23 24 24 24 24 24 22 28 28 26 24 24 25 24 21 22 20 23 21 20 14 16 19 18 18 20 21
16 17 17 16 16 15 15 13 12 11 10 10 10 11 11 12 11 11 11 12 12 12 12 14 14 15 16 17 18 18 17 20 19 17 14 13 11 7 6 8 10 11 13 14 14 13 12 12 13 17 17 16 15 15 15 16 14 14 15 18 20 22 21 23 25 27 28 28 24 28 24 20 25 20 18 17 21 20 18 19 16 17 19 22 16
17 15 15 16 16 16 16 16 15 12 12 11 11 11 10 10 11 12 12 13 13 13 14 13 14 14 14 16 18 17 19 23 18 16 14 13 13 7 6 6 12 12 12 11 11 11 11 11 10 12 13 15 15 13 12 12 12 13 11 14 15 19 21 21 21 20 23 24 25 23 23 23 26 28 29 24 23 23 19 22 20 20 21 14 11
17 15 16 16 18 16 16 14 14 15 14 12 13 13 13 13 12 11 13 12 13 14 14 14 15 15 15 16 17 16 18 20 18 18 16 15 13 8 7 7 11 9 11 14 15 15 16 16 15 19 18 20 17 14 11 11 10 11 19 17 15 14 13 11 16 16 16 14 16 20 24 24 19 26 21 17 19 17 19 18 16 19 22 22 21
18 15 16 17 18 17 16 17 14 15 16 15 15 13 12 13 13 12 14 13 14 16 15 15 15 15 16 16 14 15 16 17 17 16 15 17 11 10 9 9 9 11 14 14 16 18 19 18 16 14 13 11 17 18 13 13 9 12 11 12 13 15 12 15 16 22 23 24 17 17 16 16 19 19 15 14 17 15 15 14 17 13 12 14 13
17 17 16 16 16 16 17 17 15 14 13 15 13 12 12 13 15 14 15 13 16 14 14 14 14 15 15 17 15 12 13 16 17 15 14 15 12 12 10 10 11 11 12 14 16 17 21 28 19 14 13 13 15 15 15 13 11 11 14 14 16 15 13 13 11 12 15 17 18 15 15 13 14 15 14 13 16 11 13 15 11 12 10 12 14
16 17 17 18 18 18 16 16 15 14 15 13 12 12 11 10 10 12 12 11 11 9 10 11 10 11 13 15 16 15 12 11 15 14 15 15 13 11 12 11 13 13 13 13 15 17 15 17 21 18 14 14 14 13 14 14 13 13 13 13 13 12 13 13 11 12 13 14 16 16 15 15 14 13 13 14 14 13 10 9 9 10 9 7 5
16 15 15 14 14 16 14 14 13 14 12 11 9 9 9 10 11 11 10 11 10 11 13 13 13 12 10 11 13 14 11 10 15 15 14 16 15 13 11 13 14 14 14 15 15 14 15 15 16 17 16 15 13 13 13 13 11 12 12 11 14 15 16 15 12 10 12 13 12 12 14 12 11 12 12 12 12 11 11 10 9 7 7 6 6
16 15 14 15 16 16 14 13 12 12 12 12 13 7 7 10 9 9 9 8 8 9 9 8 9 8 8 10 12 11 12 11 13 16 15 16 18 14 14 15 11 10 12 12 13 14 15 14 11 14 15 14 13 12 12 13 12 12 12 11 9 11 12 9 14 14 12 11 11 12 11 10 10 10 10 11 11 11 11 10 11 10 8 6 6
14 14 15 16 14 13 12 10 10 10 11 13 14 15 11 9 8 9 7 7 8 7 6 6 7 6 6 8 9 10 11 11 9 11 13 14 15 15 13 12 11 8 13 12 12 13 13 11 11 12 13 12 13 14 14 13 13 12 12 8 11 14 15 12 10 11 11 10 10 11 11 11 11 11 11 11 10 10 9 9 9 9 8 8 7
14 14 13 13 11 11 10 10 9 9 10 12 11 13 14 14 11 8 5 7 8 7 6 5 7 6 6 7 8 9 9 9 7 8 9 11 12 13 12 12 13 12 12 14 13 10 9 8 9 11 13 12 12 13 13 13 11 11 11 14 15 14 12 12 11 11 10 10 11 12 12 10 10 11 10 11 11 9 9 8 7 7 6 6 5
11 11 9 11 9 9 10 10 11 8 8 9 12 12 14 15 13 15 15 8 8 8 9 7 5 7 7 6 8 8 6 7 5 6 7 8 10 10 11 13 11 10 11 9 8 7 8 8 9 12 13 12 12 10 12 11 13 12 13 13 12 9 10 9 10 9 9 11 11 11 11 9 9 10 10 8 8 8 8 7 7 6 4 5 5
9 8 8 8 8 8 7 9 9 11 8 9 10 11 12 12 13 15 14 15 15 12 11 8 7 8 6 8 7 5 6 8 8 6 5 6 7 8 9 10 11 9 9 6 3 5 7 9 12 13 12 12 11 10 9 12 14 14 15 13 11 11 11 10 10 10 12 10 8 6 7 8 8 9 8 7 8 7 6 8 6 5 4 4 3
8 8 8 4 6 6 8 6 8 5 8 9 8 7 8 10 13 14 13 15 16 15 16 13 12 11 8 8 6 5 5 7 7 7 6 5 5 6 9 9 9 12 10 8 9 10 10 10 12 12 10 9 10 7 7 8 8 9 9 9 8 9 9 9 9 9 9 9 9 10 8 7 7 9 7 6 7 8 7 8 10 10 9 9 10
7 7 7 9 10 10 10 7 9 7 5 5 9 9 9 9 9 10 11 13 12 13 16 15 15 16 10 10 8 8 8 7 6 6 6 7 6 6 7 8 7 9 9 9 10 11 13 11 11 11 10 10 10 10 10 10 10 8 7 6 6 6 5 8 9 8 7 6 6 7 7 7 7 8 10 7 7 8 5 4 5 7 7 7 7
8 5 6 7 8 11 10 10 10 9 7 5 5 7 7 8 9 8 8 9 9 11 12 13 12 12 12 13 13 8 8 11 9 9 10 11 11 12 12 8 5 10 10 15 15 13 13 10 11 10 10 11 12 10 10 10 10 8 9 8 9 7 7 7 6 6 5 6 6 4 7 5 8 9 9 9 9 9 6 6 4 7 7 6 7
10 7 5 7 10 11 11 8 10 10 6 7 9 8 8 8 10 7 6 8 8 10 10 7 8 9 10 10 11 11 11 9 10 7 8 6 7 10 9 10 11 12 8 10 15 16 13 12 13 13 13 13 13 14 12 11 12 11 8 9 9 8 9 7 9 10 9 6 7 7 8 7 9 8 7 10 12 10 8 7 8 7 7 8 10
9 8 8 8 8 10 12 11 10 10 9 7 8 6 7 7 7 10 8 4 7 7 5 9 7 6 9 11 11 10 12 12 7 9 9 9 9 9 10 10 10 11 12 13 7 13 16 14 12 14 14 14 15 15 14 13 12 11 11 8 8 7 8 9 9 12 8 8 9 6 9 7 10 9 7 9 13 11 10 8 8 9 7 8 9
8 8 7 8 11 11 10 11 11 11 10 7 8 8 8 8 9 11 9 7 7 8 9 10 8 8 8 9 8 8 8 6 7 8 8 10 10 10 11 11 11 11 7 10 10 9 16 16 18 17 14 10 12 15 14 11 13 12 12 10 10 10 9 9 12 10 9 9 8 9 9 7 10 10 8 10 10 13 11 10 10 8 9 8 9
5 8 8 7 8 9 11 12 10 10 10 9 8 8 11 9 13 8 9 8 9 11 11 11 11 11 11 11 10 11 8 9 9 8 9 10 12 12 13 12 13 8 7 7 7 12 11 17 16 17 17 14 16 16 13 11 12 13 12 12 11 11 11 11 9 9 9 8 9 9 9 10 10 10 11 10 7 10 11 11 10 11 10 8 11
6 7 8 7 8 9 11 10 10 5 9 9 12 10 9 8 11 13 12 8 12 12 12 13 13 12 12 13 14 13 13 10 10 11 11 12 12 14 14 15 14 9 11 7 11 15 15 17 18 16 16 15 17 16 17 15 14 12 13 13 11 11 13 13 9 9 10 11 9 10 11 11 11 10 9 10 9 11 8 9 10 11 10 9 11
9 9 8 10 9 10 9 9 9 10 11 11 12 11 11 9 10 10 11 12 13 11 12 16 18 16 15 15 15 16 16 14 14 14 13 13 11 14 10 15 17 13 14 14 11 15 15 18 18 20 18 12 12 12 14 14 13 12 14 13 13 10 10 10 6 10 10 11 11 12 10 12 11 10 11 11 11 11 10 9 8 9 10 11 11
11 12 14 11 9 12 11 10 11 12 12 12 12 12 12 11 11 11 11 11 14 14 13 16 14 16 21 17 17 18 16 15 15 15 16 16 16 15 10 14 17 13 12 13 13 10 11 18 14 11 11 13 13 12 14 14 16 15 16 14 13 11 12 14 12 11 11 11 12 12 11 10 10 10 9 11 11 12 10 10 9 11 9 10 11
13 13 13 14 13 12 13 12 12 13 14 14 14 14 13 12 12 14 13 15 11 14 15 16 16 11 18 19 20 18 17 16 16 16 16 17 18 8 11 15 16 12 11 10 7 6 9 9 8 11 11 11 13 13 14 15 16 14 15 17 18 13 12 12 12 12 11 11 13 15 13 14 12 11 9 10 9 10 11 11 11 8 9 9 6
14 14 14 14 14 14 14 13 12 15 12 15 13 13 12 13 12 13 13 13 13 14 13 14 13 13 9 15 18 15 15 15 16 15 15 17 18 13 13 14 12 11 8 10 9 10 11 11 10 11 11 11 12 12 12 13 14 14 12 15 16 15 14 15 16 13 18 18 18 18 16 13 13 12 11 11 12 13 12 12 11 11 10 5 5
15 16 16 16 14 15 13 14 17 14 16 14 13 14 14 15 15 13 12 14 14 12 13 14 11 16 18 17 12 12 15 13 11 9 9 9 13 15 16 12 10 9 6 8 8 9 10 10 10 11 12 13 12 13 12 11 11 12 12 13 12 13 12 15 13 15 17 19 19 17 13 14 14 13 12 12 12 13 12 13 11 13 12 9 5
15 16 19 20 14 16 15 15 15 14 14 15 15 14 15 16 15 14 14 14 13 13 12 11 11 15 15 14 12 11 11 9 12 12 13 16 17 12 8 6 6 7 9 11 8 11 10 10 10 11 11 12 12 12 12 12 12 12 13 12 12 11 13 12 15 16 16 18 16 15 15 13 14 14 12 11 13 13 13 12 11 10 10 10 10
15 16 15 18 17 18 16 16 16 15 15 15 15 15 15 16 18 18 17 14 13 15 14 12 13 13 13 14 11 11 14 15 13 12 12 13 15 10 8 6 7 10 11 10 8 10 9 9 10 11 11 11 12 12 12 12 11 12 11 11 11 11 11 12 13 13 13 11 12 13 13 14 12 11 12 13 12 12 11 11 11 10 9 9 10
16 17 12 13 16 18 15 16 16 17 16 17 18 17 17 17 15 14 15 15 15 15 14 14 14 12 13 14 13 16 16 14 13 12 12 12 9 6 8 9 11 10 9 11 10 9 9 10 10 10 10 10 11 11 11 11 11 12 11 11 11 10 12 12 12 13 13 12 13 13 12 12 13 13 14 13 10 11 12 11 11 12 11 10 9
16 15 15 15 17 15 15 16 16 18 16 15 16 15 14 15 15 15 15 15 15 14 13 15 15 15 14 18 18 19 17 13 12 11 9 8 8 10 8 10 10 11 12 11 10 10 9 10 9 9 10 10 10 10 11 10 10 11 11 11 11 11 12 13 12 14 13 11 11 12 12 13 14 14 13 9 12 12 11 12 13 12 12 12 11
15 17 17 15 13 13 16 16 16 18 17 14 15 12 16 17 16 16 16 17 16 16 20 22 20 13 15 14 19 17 14 12 8 11 11 11 10 10 11 11 10 9 9 9 7 8 8 9 8 7 8 9 8 9 10 9 10 10 11 12 10 12 13 12 12 12 12 13 14 14 14 13 14 14 13 14 14 13 12 12 12 12 12 11 9
14 15 15 14 14 14 12 14 17 18 19 16 14 16 16 17 19 19 18 19 18 16 17 17 17 15 14 14 11 12 11 12 12 12 12 10 11 11 11 11 11 11 11 10 8 7 8 8 7 6 6 7 7 7 9 9 11 12 12 11 12 13 13 12 12 12 11 12 13 13 14 15 15 14 14 15 15 15 15 13 13 12 12 11 11
18 18 18 18 18 16 16 14 14 15 13 14 14 15 16 15 16 16 15 17 17 15 14 11 12 14 16 15 13 11 11 13 12 12 12 14 14 12 12 11 11 10 10 8 7 8 9 8 6 6 4 5 6 8 9 10 10 11 12 13 13 12 11 11 10 10 12 12 13 13 14 14 14 14 14 14 14 14 13 12 10 10 13 13 13
17 17 18 19 19 17 17 17 15 17 17 17 18 20 22 22 22 21 22 21 21 23 25 24 17 18 20 20 16 13 12 11 13 13 14 14 15 12 11 11 11 9 10 7 5 6 5 7 6 4 4 4 4 5 9 10 11 13 14 12 13 12 11 9 8 12 14 14 13 12 13 13 14 14 14 15 13 11 9 10 10 10 9 10 11
18 18 19 17 18 19 16 17 20 22 22 21 19 19 18 16 16 16 15 18 18 14 13 14 13 14 15 14 14 14 12 12 11 13 13 13 12 12 12 12 10 8 7 5 4 4 5 5 5 4 4 2 3 4 7 11 13 14 11 11 10 9 8 8 10 12 12 13 13 13 12 11 13 13 15 15 11 12 12 12 10 11 13 12 12
18 17 19 16 19 21 21 19 21 16 21 22 17 14 14 14 14 15 17 16 14 12 12 10 12 12 14 13 11 11 12 12 13 12 12 13 11 10 9 10 10 9 10 5 5 7 8 6 5 6 6 5 5 9 7 10 13 14 9 9 7 7 8 6 8 9 9 9 11 13 14 14 13 14 12 13 11 13 14 13 13 13 13 13 13
20 18 18 21 20 19 17 17 16 19 22 19 19 19 15 16 14 13 15 15 14 15 16 17 16 13 15 15 12 11 11 11 13 12 12 11 10 9 7 6 6 9 4 4 5 5 8 5 5 8 9 10 10 9 7 9 13 12 10 8 7 8 9 9 8 7 7 7 11 13 14 15 15 13 14 13 12 11 11 12 12 13 13 12 14
20 19 18 16 16 17 16 16 20 20 18 19 18 18 18 17 18 16 18 16 17 16 15 18 17 16 16 15 14 12 12 13 12 12 11 11 9 10 9 8 6 4 4 6 5 4 6 6 7 8 8 8 7 8 7 9 12 11 10 11 9 9 9 10 11 10 9 7 8 11 15 16 13 12 14 13 14 13 14 13 12 14 13 14 14
19 19 19 19 18 17 18 19 20 21 20 19 17 18 18 19 19 20 20 21 19 20 17 18 19 17 14 14 14 15 13 12 12 13 14 14 11 8 9 8 6 4 5 5 6 8 7 8 8 8 7 9 8 10 7 10 10 12 11 11 12 10 9 8 8 7 9 7 8 11 14 13 12 13 12 12 14 12 14 13 13 13 13 11 13
Wind_Speed
1 2 2 2 2 3 1 2 2 3 2 0 1 1 1 0 1 4 3 5 6 7 7 8 7 7 7 7 7 7 7 7 5 4 4 6 7 7 6 6 7 7 6 7 5 5 6 6 7 7 5 4 6 5 5 6 5 6 5 4 6 4 5 5 6 9 7 4 6 7 5 3 6 5 6 6 6 4 5 5 6 6 8 8 10
4 3 2 3 4 2 2 0 1 3 2 1 3 3 3 2 2 3 4 5 4 6 8 7 6 6 7 8 8 8 8 9 8 7 8 8 8 6 7 7 7 8 6 7 7 6 6 7 8 8 5 6 6 6 7 7 6 6 6 6 7 7 6 6 7 5 11 6 7 5 6 3 7 6 5 8 8 6 6 5 5 6 7 7 8
5 3 2 3 2 1 1 2 1 3 2 2 3 3 3 3 2 2 3 3 5 6 5 4 6 5 5 6 8 8 9 10 9 8 9 9 9 8 7 7 9 9 8 9 9 7 6 6 8 8 5 5 7 7 6 7 6 6 7 6 7 8 7 7 6 7 8 9 6 7 6 4 5 10 7 6 6 6 6 6 6 6 6 7 8
5 6 5 5 3 1 3 3 3 4 5 4 4 2 3 4 3 2 3 3 3 3 5 5 5 4 4 5 6 7 7 7 7 9 10 10 10 10 10 10 10 9 9 9 8 6 7 6 8 8 6 6 7 7 7 6 6 7 7 7 7 8 8 6 8 8 7 8 6 6 7 5 7 6 7 6 7 7 7 7 4 6 7 7 8
2 3 4 3 2 2 4 5 6 6 6 4 4 3 5 5 3 4 5 5 5 3 2 2 3 3 4 4 3 4 4 4 5 6 7 8 9 9 9 9 10 10 10 9 8 8 8 8 9 8 6 7 8 7 7 7 8 7 8 7 7 8 7 6 8 7 7 9 8 5 6 6 6 7 6 7 8 7 7 7 8 7 8 7 6
1 1 1 2 3 4 6 6 7 6 5 3 3 4 6 6 5 5 5 6 6 5 5 6 4 3 0 2 1 1 1 1 3 5 8 8 8 8 8 8 9 10 10 9 8 8 8 9 9 8 7 8 9 8 7 8 7 7 8 8 7 7 7 7 6 6 7 9 8 8 5 7 7 7 7 5 7 8 8 8 6 7 7 7 6
0 1 3 3 4 6 8 8 7 6 6 5 4 3 3 3 2 3 3 4 3 4 4 5 8 8 7 2 0 2 2 2 3 3 2 4 6 8 8 8 9 9 9 9 8 7 8 8 8 9 9 9 9 9 8 7 6 7 7 7 6 4 6 6 5 6 7 8 8 8 8 6 7 10 8 4 7 7 8 8 7 8 5 7 7
2 3 4 5 5 6 6 6 7 5 3 2 1 2 3 3 3 3 3 3 3 4 5 5 6 4 6 6 5 3 5 4 3 3 3 2 0 3 5 7 8 7 6 5 5 7 8 9 9 9 9 8 8 7 6 7 5 6 7 6 6 4 5 6 6 6 6 7 8 10 7 7 5 7 5 1 3 6 6 7 9 10 9 5 7
1 1 1 2 3 4 3 2 1 1 1 1 1 2 3 3 3 3 2 2 3 4 3 3 3 3 3 4 3 5 6 5 5 6 6 4 1 2 3 3 2 3 3 3 4 6 7 7 8 8 8 9 11 10 9 9 6 7 7 6 6 6 6 8 8 7 8 8 9 8 8 8 8 8 7 6 8 11 8 5 8 9 8 6 7
1 1 2 3 3 3 3 3 2 1 2 2 2 2 2 2 3 2 1 3 1 2 2 2 1 1 1 2 2 1 1 3 8 8 6 4 4 4 2 2 1 2 3 4 5 5 6 6 6 10 12 13 14 14 13 13 12 9 8 6 6 6 7 8 8 8 8 8 9 10 9 9 10 9 8 9 8 5 6 5 5 8 5 8 8
4 3 4 3 4 5 6 5 5 5 4 4 4 5 6 6 5 5 6 5 3 2 3 5 4 2 0 1 4 7 6 6 11 10 8 4 2 2 3 4 3 3 4 5 5 5 5 5 5 6 7 7 8 11 11 9 9 10 11 11 10 8 7 8 9 9 9 10 9 9 9 11 12 10 8 8 6 7 6 5 6 3 7 8 11
4 4 4 6 7 7 6 6 7 7 7 7 7 6 6 6 6 5 4 5 5 5 6 6 6 5 7 9 7 5 5 10 10 11 9 9 5 3 3 4 4 4 4 5 5 4 5 5 5 4 4 4 3 3 5 7 8 10 11 12 12 14 14 12 11 10 9 9 9 9 8 10 10 8 8 5 7 6 6 6 6 8 8 9 8
8 8 6 7 8 6 6 6 6 6 6 5 5 5 6 7 7 7 7 6 6 7 7 7 8 8 8 7 6 5 6 10 10 10 9 8 7 5 3 3 3 4 4 4 4 4 5 6 6 5 4 6 4 3 3 4 5 7 8 8 8 11 13 14 14 11 10 10 10 11 11 10 10 10 7 5 2 6 5 8 7 7 8 8 8
7 7 8 7 5 5 7 7 7 6 5 5 5 5 6 7 6 6 6 6 7 7 8 9 8 8 7 6 6 6 5 9 10 10 10 10 8 5 2 3 3 3 4 3 4 5 5 5 6 5 4 4 7 7 6 6 6 6 4 4 5 7 10 12 12 14 10 9 9 10 10 5 11 11 9 3 5 7 6 9 5 7 7 10 6
7 7 7 7 6 5 6 7 6 6 6 6 6 6 6 5 6 6 6 6 6 6 6 7 6 6 6 6 6 4 5 10 8 8 8 7 7 3 2 2 2 3 4 4 5 6 6 5 5 5 5 5 5 7 5 5 5 6 6 6 6 6 4 4 5 5 4 6 8 9 9 7 9 9 7 4 7 7 7 8 7 7 8 6 6
6 6 7 7 8 8 7 6 6 6 6 6 6 6 6 5 6 5 6 6 5 5 5 5 6 6 5 5 5 6 5 9 9 9 9 8 7 4 3 2 3 4 6 8 6 5 6 5 4 4 4 4 9 10 7 6 6 5 6 6 6 4 3 5 10 8 5 5 5 6 6 6 6 6 5 4 2 1 2 2 2 3 5 5 6
5 6 6 6 6 6 6 5 4 4 4 5 5 5 5 5 4 4 6 4 5 5 4 3 3 4 4 3 4 4 4 7 8 8 9 8 5 4 4 4 5 7 7 6 5 6 6 6 5 5 5 6 10 10 9 7 4 4 5 5 5 4 5 5 9 11 11 11 10 9 8 9 9 10 10 9 6 3 0 2 3 3 2 3 2
4 5 5 4 5 5 5 5 4 3 4 4 4 4 4 3 3 3 5 5 5 4 3 3 2 2 4 4 3 4 4 5 7 8 8 9 6 5 4 5 6 6 5 5 4 5 7 12 8 5 5 6 9 10 11 6 5 7 7 6 6 7 6 7 4 5 7 8 9 9 9 9 9 9 10 11 11 7 4 4 3 1 1 1 0
4 4 4 4 4 4 4 5 4 4 3 3 3 4 4 3 2 2 3 4 4 3 3 4 3 1 2 3 5 5 4 4 6 8 8 7 5 4 5 5 6 5 4 4 3 3 3 6 10 7 5 5 8 9 11 8 6 6 6 5 6 7 7 6 5 5 6 7 7 7 9 11 9 7 7 11 11 9 6 4 3 2 3 2 1
3 3 4 4 4 4 4 5 4 4 4 3 3 2 1 2 2 2 1 2 4 3 2 3 4 2 1 2 3 3 4 3 4 7 7 7 5 4 4 6 5 4 3 3 3 3 3 3 5 6 7 6 7 8 8 8 5 5 5 5 5 6 5 4 6 5 5 6 6 6 8 7 6 6 6 6 7 6 5 5 4 3 4 3 3
4 3 4 4 4 4 3 4 5 4 4 4 3 3 3 2 0 1 1 1 1 2 2 2 2 1 0 0 2 1 2 4 3 6 7 8 7 6 5 4 3 4 3 3 3 3 4 5 4 7 9 8 6 6 6 7 6 4 4 4 2 1 2 4 5 8 5 6 6 6 5 5 5 5 5 5 5 5 5 4 4 4 3 4 4
3 3 3 3 4 4 3 3 3 4 3 4 5 4 2 2 2 2 1 0 0 1 0 1 1 1 1 1 0 1 1 2 3 5 7 8 8 6 5 3 2 4 4 5 4 4 3 3 3 6 9 9 10 5 4 4 4 4 2 2 2 5 5 3 3 4 5 4 4 5 5 5 4 4 4 4 4 5 5 5 4 3 2 3 3
3 2 1 2 2 2 2 2 2 3 3 3 5 4 2 3 1 1 2 1 1 1 0 0 1 2 1 2 1 1 1 1 3 2 4 6 6 7 5 3 2 3 5 3 2 2 2 2 3 6 7 8 8 9 6 2 3 1 1 3 5 5 5 4 3 4 4 4 4 4 4 4 4 4 4 4 5 4 4 4 4 3 2 2 1
3 3 4 4 3 2 1 1 1 1 4 4 4 4 3 3 2 2 1 3 2 1 0 2 2 2 3 3 3 2 2 1 3 4 4 3 3 5 6 5 5 2 2 2 2 2 4 4 4 6 6 6 7 7 9 8 2 2 1 2 4 4 3 3 4 4 3 2 3 2 2 3 3 4 3 3 4 5 5 4 3 3 2 2 1
3 3 3 2 3 3 3 3 0 1 0 2 4 2 2 3 3 1 1 2 3 3 1 1 4 5 4 3 4 3 3 2 1 1 2 4 2 2 2 2 2 3 1 0 0 1 3 5 5 6 6 5 5 5 6 6 8 7 3 1 1 2 3 3 2 2 3 2 1 2 3 3 4 5 4 3 4 4 3 4 3 2 2 2 2
4 2 0 1 2 3 5 4 4 3 1 2 0 2 3 2 5 2 1 1 1 1 1 2 2 2 3 4 3 3 1 2 1 0 2 3 1 1 1 2 3 3 3 2 4 4 4 5 7 6 5 4 2 2 3 4 7 8 8 4 0 1 2 3 1 2 1 1 1 2 3 4 4 5 3 1 2 4 3 4 6 6 5 5 6
2 2 4 3 3 3 4 4 5 4 2 1 2 0 0 2 3 1 2 2 2 1 1 1 1 1 1 2 3 2 1 1 1 2 2 3 2 1 2 2 2 2 2 2 4 4 5 5 6 8 8 9 7 6 6 6 5 4 4 4 3 2 2 3 2 1 1 2 2 3 4 4 4 4 5 3 4 4 1 1 3 4 4 4 4
3 2 2 3 2 3 4 3 3 5 4 3 3 3 3 1 2 4 4 4 3 3 4 3 4 4 3 3 3 3 3 3 4 4 5 4 4 2 2 2 3 3 4 4 4 4 4 5 6 4 4 4 3 3 5 5 5 4 5 5 6 4 3 4 3 1 3 3 2 2 4 3 4 5 5 5 6 4 1 1 0 2 3 3 3
2 2 2 3 4 3 2 3 2 3 4 3 4 4 5 5 5 4 4 5 4 4 5 5 5 5 6 6 5 5 5 4 5 7 5 6 4 3 3 3 2 3 3 1 4 4 2 3 3 5 4 5 6 6 5 4 6 6 5 5 6 6 4 3 5 7 6 2 3 3 5 4 5 3 3 6 6 5 1 1 2 2 2 0 1
1 1 2 3 3 3 4 4 4 3 4 3 3 3 4 5 5 5 5 2 2 3 4 5 4 2 5 7 6 6 7 7 5 4 6 5 5 5 5 5 5 4 3 1 1 3 5 6 5 5 6 6 7 8 8 6 6 6 6 6 5 5 5 6 6 7 4 4 4 3 4 3 5 5 4 4 7 6 2 2 2 0 0 2 5
1 2 2 3 4 5 4 3 3 2 2 3 2 3 5 5 6 7 7 7 5 6 7 8 5 5 5 6 6 7 7 4 4 5 5 6 6 8 8 8 7 6 3 1 0 1 4 6 6 6 4 4 6 7 7 6 6 6 6 6 6 6 5 5 7 6 6 4 4 4 4 3 5 6 4 5 5 7 6 1 1 2 3 4 3
1 3 4 4 4 4 5 3 2 1 1 1 2 2 3 4 8 7 8 6 7 8 9 9 8 8 9 8 6 6 6 6 6 6 7 6 8 9 9 9 8 5 5 6 1 3 1 3 4 5 5 5 6 5 3 3 4 5 5 4 6 6 5 7 5 4 6 5 6 5 5 4 4 4 5 5 4 6 6 7 4 4 3 2 5
4 4 5 5 5 4 5 4 4 3 4 3 3 4 4 4 5 6 7 7 9 10 10 11 11 10 9 9 11 11 11 7 5 6 6 7 6 7 9 10 9 6 9 2 0 2 1 1 1 4 3 4 4 6 8 8 8 6 2 5 5 5 4 1 1 2 4 3 3 5 5 4 3 4 4 5 4 6 5 5 4 3 4 5 5
6 6 5 6 6 6 6 5 6 6 6 7 5 5 6 6 7 6 7 7 8 7 9 13 15 14 12 13 12 13 13 12 12 10 7 6 6 7 5 4 6 9 5 1 3 0 0 1 1 0 1 2 4 5 7 7 7 7 8 7 3 3 0 1 2 0 0 3 4 4 4 3 2 1 4 6 4 2 3 3 4 4 6 7 6
7 9 12 9 6 8 7 7 6 7 7 7 7 7 8 7 7 6 7 7 7 8 7 8 9 12 13 12 14 15 13 13 13 11 8 7 6 6 5 2 1 1 1 1 2 3 2 4 4 3 4 5 4 6 6 5 6 6 6 5 6 7 7 8 6 5 6 6 6 6 4 4 4 5 5 5 6 7 6 4 4 2 3 6 3
8 8 8 9 8 7 8 7 7 8 8 8 8 8 8 7 7 7 7 7 7 7 7 8 8 8 12 15 17 15 15 14 12 9 8 9 5 0 2 5 4 2 1 0 2 2 4 3 5 4 4 5 4 5 6 5 4 4 3 4 5 5 6 6 4 5 5 6 5 4 5 6 6 6 3 3 4 4 6 7 6 4 2 1 1
8 8 8 8 8 8 8 8 7 9 9 9 8 8 7 7 7 7 7 7 7 7 7 7 6 7 5 5 11 13 12 10 8 7 7 10 5 2 4 4 6 4 2 2 4 4 3 3 3 4 4 5 4 4 4 3 3 4 4 4 4 5 5 4 4 3 5 6 5 5 6 6 6 6 6 7 6 6 7 6 7 7 7 3 2
8 9 8 9 8 9 8 8 10 11 10 8 8 8 8 8 9 8 8 8 8 7 7 7 6 7 7 8 6 7 9 9 5 5 7 7 2 2 3 5 4 5 3 3 4 5 4 3 4 4 3 4 5 3 4 4 4 4 5 5 5 4 3 4 3 4 4 5 5 5 5 6 6 6 6 7 6 6 6 6 6 7 7 6 3
6 11 15 16 12 9 8 9 9 8 8 8 8 8 9 9 8 8 8 8 7 7 7 7 7 7 7 8 5 4 6 5 7 8 7 6 3 6 3 2 3 2 2 3 4 4 5 4 3 4 4 4 4 4 5 5 5 4 4 5 4 3 4 4 4 3 4 5 4 4 5 6 5 5 4 6 7 6 5 5 5 5 5 5 5
6 6 8 12 8 10 9 9 8 8 8 8 8 7 8 9 10 10 10 8 8 8 7 7 8 8 7 3 5 6 7 8 8 8 7 6 4 0 2 3 5 7 6 4 5 5 5 4 4 4 4 4 4 5 4 5 5 4 5 5 5 4 3 3 3 3 4 2 3 3 4 4 4 4 5 6 6 5 6 5 4 4 3 4 5
7 7 7 7 8 7 7 7 7 8 8 8 7 7 7 7 6 8 8 8 8 8 7 7 7 6 4 7 11 12 9 8 8 8 8 7 4 3 4 6 7 6 6 7 7 6 6 6 5 5 4 4 4 4 5 5 5 5 5 5 5 4 3 3 3 3 2 4 4 4 4 4 4 6 6 5 4 5 4 3 3 4 4 4 5
9 8 9 8 8 6 6 6 6 6 6 6 7 7 7 4 4 5 5 8 9 7 7 8 8 8 9 13 12 15 9 7 7 7 6 5 5 6 5 6 6 7 7 7 7 6 6 5 5 6 5 5 5 4 4 5 5 6 5 5 5 4 5 3 2 2 2 3 3 3 3 4 5 5 5 4 5 5 5 6 5 5 5 6 5
8 8 8 8 8 7 7 7 7 6 7 7 7 7 8 8 8 8 7 8 9 7 7 10 10 7 8 10 12 15 7 5 6 6 7 5 4 4 5 6 6 5 6 5 6 5 6 5 5 5 5 5 5 5 6 5 6 6 5 5 5 5 5 3 2 1 1 2 2 3 4 4 6 6 6 6 6 5 6 6 6 6 5 6 5
7 7 8 8 8 8 7 7 7 7 7 8 8 8 8 8 8 8 8 9 11 9 8 9 8 9 7 7 5 3 2 1 3 6 6 6 7 6 5 6 6 7 7 7 5 4 5 5 5 3 3 4 4 4 5 5 6 6 7 6 6 5 5 5 4 4 3 3 2 3 4 4 5 6 6 6 5 6 6 7 7 6 6 6 6
9 9 9 9 9 8 9 8 8 8 6 7 6 7 7 7 8 9 9 8 8 8 8 6 5 2 3 5 6 5 4 5 4 5 6 7 8 7 6 5 6 6 6 5 5 4 5 4 4 4 3 3 2 4 4 4 4 6 7 7 7 6 6 6 6 5 5 4 4 3 3 5 4 5 5 4 4 5 6 5 5 6 7 7 7
9 9 9 9 10 9 9 10 9 9 8 8 8 8 8 7 7 7 8 8 9 9 9 9 8 7 7 7 8 8 6 5 4 5 6 6 7 7 6 4 4 5 6 4 3 2 2 3 4 3 2 2 2 3 3 3 3 4 5 6 7 7 6 6 5 5 4 4 5 4 5 5 5 4 5 4 4 5 5 5 5 5 5 5 6
8 8 9 9 9 10 8 9 8 9 8 8 7 7 7 8 8 8 8 9 9 7 6 6 5 7 8 8 7 7 5 5 5 5 5 6 6 6 4 4 3 3 3 3 3 3 3 3 3 3 2 0 0 3 4 3 2 2 2 3 4 4 4 5 5 4 4 4 5 5 4 5 5 4 5 4 4 4 5 5 4 5 5 5 5
7 8 8 7 8 8 8 8 9 10 9 9 8 8 8 7 7 7 7 7 7 6 4 3 4 7 8 6 2 4 4 0 1 3 5 5 5 5 4 3 3 1 0 0 2 4 5 4 3 2 3 4 3 3 4 4 3 3 2 1 2 3 5 5 3 3 3 3 3 4 5 6 5 5 4 5 4 4 5 3 3 4 5 5 6
8 8 8 9 8 8 8 9 9 8 9 9 9 9 8 7 6 7 7 7 7 7 6 6 7 7 8 8 7 7 5 5 6 5 3 2 2 3 3 1 1 2 2 3 2 4 4 2 3 4 4 4 4 3 4 4 4 4 4 3 4 6 7 6 4 3 4 4 3 4 5 5 5 5 5 5 4 4 4 3 3 3 3 3 4
9 9 8 8 8 8 8 8 9 9 9 10 9 10 10 10 10 9 8 9 9 9 8 9 9 9 8 8 8 7 6 5 4 4 4 5 6 6 7 3 2 2 0 1 1 1 4 4 4 4 5 4 4 3 4 5 5 6 5 6 7 5 5 6 5 5 5 5 5 5 6 6 5 4 5 5 5 4 3 4 3 3 3 4 4
8 8 8 8 8 8 8 8 9 9 9 9 9 9 9 9 10 9 9 8 8 8 8 8 9 9 8 7 6 6 6 6 6 8 8 8 6 2 1 1 0 1 3 1 4 6 5 4 4 4 4 4 4 4 4 4 4 5 7 7 7 7 7 6 6 6 7 4 3 5 6 6 5 5 4 4 3 5 5 4 3 3 3 3 2
Wind_Direction
106 114 144 151 174 230 74 2 287 222 211 96 55 359 336 112 162 259 290 251 211 202 207 211 196 190 189 194 197 200 210 219 215 210 211 225 227 224 226 216 221 233 233 252 251 234 229 232 246 246 232 237 246 246 243 241 234 231 232 220 231 208 187 205 236 266 281 225 247 261 264 242 284 246 260 274 283 267 231 235 234 231 230 232 237
144 153 159 182 196 196 130 155 315 340 316 197 213 220 234 241 213 230 220 233 254 233 209 210 208 190 184 193 198 201 205 209 207 199 211 216 225 223 224 216 221 228 223 237 242 237 227 228 242 246 234 231 242 244 235 234 226 228 230 215 225 233 200 202 233 239 271 292 286 267 278 237 260 269 248 268 270 274 274 256 243 230 235 233 235
142 142 191 237 223 207 186 205 214 271 270 267 237 196 228 243 257 238 259 263 215 229 250 240 221 206 202 196 198 199 200 205 208 203 210 213 216 218 219 220 221 224 223 229 234 233 236 236 241 241 236 235 242 242 240 238 232 226 234 220 226 231 221 206 219 247 255 266 258 282 271 272 245 277 275 256 259 252 258 260 244 239 232 231 233
151 163 186 217 223 159 262 280 255 243 254 235 226 225 247 248 231 240 285 279 267 237 216 224 228 228 220 214 213 216 212 213 212 211 214 213 215 216 215 217 221 224 223 226 231 230 231 236 246 244 234 231 243 243 240 236 234 231 235 236 225 235 230 214 212 224 242 256 257 239 271 276 272 257 269 277 275 275 253 261 242 239 242 234 229
145 146 165 199 203 198 231 228 223 226 217 204 212 208 224 229 209 232 238 251 265 265 257 215 225 221 223 226 232 233 232 224 230 231 232 227 224 222 222 224 226 226 224 224 222 223 228 228 240 240 233 233 243 245 242 236 235 230 234 237 228 234 237 221 224 215 234 246 259 239 242 256 258 271 258 267 277 270 269 255 249 235 239 237 231
70 109 204 188 184 192 229 234 238 240 241 235 231 223 220 212 215 225 231 245 246 247 266 277 282 249 250 356 349 57 11 238 212 222 224 221 223 227 231 232 233 231 228 225 227 225 228 231 238 236 229 228 240 242 243 243 242 239 241 241 235 236 238 241 228 229 225 246 246 269 252 246 270 260 252 218 244 268 272 266 269 263 249 264 253
240 194 212 221 214 204 208 218 227 231 229 217 208 231 248 253 247 248 243 250 249 245 242 225 236 239 248 216 69 14 2 313 282 261 244 228 222 222 226 231 236 234 231 228 229 233 237 239 234 226 223 225 233 238 236 238 236 242 244 249 251 251 260 261 251 238 235 248 261 245 256 247 229 262 262 197 230 233 253 276 280 263 251 231 258
197 208 211 222 222 219 213 207 209 218 233 224 212 237 246 246 239 246 260 265 283 259 240 227 226 207 210 212 185 189 263 262 272 294 294 286 295 219 220 235 237 237 239 242 244 244 242 240 238 234 226 225 223 233 224 236 225 239 241 235 242 238 256 266 259 247 252 251 251 265 252 261 258 237 278 315 267 268 237 231 252 268 268 243 235
210 256 273 278 268 252 252 216 148 158 209 247 321 311 296 271 260 276 340 355 278 281 280 256 213 205 225 230 191 202 227 230 206 224 246 281 268 240 272 282 279 276 273 275 270 263 258 249 243 239 229 224 221 222 219 209 206 226 243 223 230 229 246 261 262 260 255 250 260 255 263 267 260 267 266 252 240 247 251 199 239 253 267 289 273
91 66 52 28 26 39 55 77 110 114 138 155 195 212 259 302 13 13 107 136 93 308 348 358 38 112 246 285 242 221 0 8 348 323 314 323 311 308 313 319 300 264 268 270 274 279 272 269 259 251 249 248 247 242 234 221 213 209 228 229 224 236 244 252 257 257 257 259 255 260 262 257 260 252 248 247 255 282 291 271 256 273 324 289 280
65 70 60 40 34 39 52 61 62 52 43 50 56 56 42 53 65 52 28 35 36 20 9 25 19 31 107 328 32 46 43 16 5 11 8 346 308 291 285 288 274 265 256 251 251 255 267 271 277 278 269 262 258 254 257 258 259 256 255 253 245 235 239 244 248 250 252 252 254 254 253 261 262 264 258 256 239 231 229 231 251 254 257 267 277
58 55 57 55 51 50 51 48 46 41 41 43 46 42 47 46 46 49 47 40 30 35 35 29 23 21 44 57 52 35 33 11 6 6 6 4 356 303 279 270 275 274 266 267 273 276 280 284 282 276 268 261 252 250 239 243 243 241 244 250 252 251 242 240 250 254 255 263 268 263 263 260 268 265 267 252 253 258 250 251 239 245 250 244 247
43 37 33 54 58 57 65 68 60 54 52 56 55 56 57 55 50 48 44 41 49 46 42 41 45 56 63 55 47 30 20 10 359 356 349 347 348 337 282 270 274 277 284 288 296 297 294 290 292 294 293 300 309 319 311 306 297 282 264 261 251 250 259 254 245 240 253 264 266 265 259 268 271 266 259 263 227 263 261 258 249 245 251 266 249
44 37 32 34 45 66 74 73 71 63 63 60 61 62 68 71 71 67 60 50 53 51 46 53 54 56 56 58 54 42 31 3 353 351 346 341 339 332 295 308 306 303 299 306 296 290 294 303 302 306 320 7 26 3 345 329 316 299 303 281 267 261 251 248 249 242 230 231 244 254 259 245 259 256 252 209 231 247 244 254 252 264 248 248 260
41 35 35 29 33 44 67 76 77 75 68 63 59 54 54 61 68 73 71 61 59 57 60 70 66 67 63 62 58 41 26 9 4 1 357 351 341 322 317 332 315 313 316 318 5 19 18 12 12 13 15 45 25 358 336 328 315 302 290 278 268 259 272 288 284 288 263 224 233 241 260 260 273 292 297 284 253 257 261 272 275 271 278 288 290
44 38 37 35 38 35 40 52 71 73 70 64 63 61 55 54 62 65 73 70 67 75 73 80 87 82 75 68 65 47 16 11 11 18 19 17 19 37 14 10 18 36 41 52 45 27 21 11 5 12 10 19 8 349 338 311 294 288 290 294 305 318 325 3 35 44 40 19 2 19 32 51 55 39 10 346 326 319 270 246 233 256 273 281 280
44 42 40 38 39 40 50 61 61 66 76 79 74 73 77 77 80 90 91 94 93 85 83 76 78 95 89 82 81 59 25 6 6 12 26 21 35 38 36 43 50 62 53 47 45 35 32 27 20 17 10 11 352 345 338 335 305 325 324 328 327 324 33 21 71 55 60 64 67 65 55 46 44 37 26 14 357 305 280 47 27 11 340 306 329
40 44 42 40 41 40 48 66 81 90 84 92 96 92 88 80 86 91 110 109 98 104 108 88 65 93 104 96 91 83 41 5 9 7 14 32 39 52 48 59 53 61 68 53 43 36 35 41 40 28 20 14 354 359 0 357 21 15 5 2 10 27 14 352 26 46 56 64 56 51 43 36 33 33 28 20 16 12 36 46 331 343 40 354 77
43 40 26 25 37 39 49 62 77 95 105 119 123 123 125 130 137 107 116 117 129 137 113 108 93 76 113 119 109 95 79 31 27 28 26 32 52 46 54 69 72 55 54 51 33 43 28 34 40 39 39 13 9 19 19 22 40 26 16 19 27 33 12 4 15 22 21 29 23 20 24 22 20 23 16 18 22 29 26 24 346 49 88 63 86
42 48 39 31 31 38 39 61 63 77 94 86 72 68 45 123 150 137 148 141 145 143 134 118 115 116 81 102 103 110 101 74 51 54 44 31 48 74 51 70 73 74 61 56 44 25 24 16 23 16 7 15 22 27 30 25 39 24 26 31 25 24 357 17 34 41 34 34 27 28 31 18 14 16 13 14 15 18 21 20 22 38 84 83 55
36 25 31 44 44 41 40 62 75 69 85 101 90 74 90 91 48 92 160 156 114 136 153 163 141 169 307 170 111 101 109 102 77 76 63 48 40 70 61 71 78 75 62 48 40 32 12 6 350 12 357 352 17 40 40 39 39 56 42 61 40 304 43 52 33 43 44 37 32 29 21 9 11 4 3 8 8 1 2 11 30 48 70 72 66
60 35 27 32 51 48 42 44 79 100 97 92 84 71 45 113 142 155 121 59 314 225 314 234 187 205 274 300 272 105 35 100 96 67 75 68 47 45 84 86 116 99 62 39 24 21 356 349 343 0 356 346 341 5 60 60 61 74 74 166 112 78 81 85 75 61 49 38 24 25 13 1 355 350 346 347 347 350 355 349 352 11 55 118 120
33 55 46 28 3 54 71 71 73 88 80 91 103 86 45 56 40 81 106 102 120 145 206 267 289 276 291 292 300 314 335 4 39 54 65 74 67 59 48 44 59 86 91 56 23 330 304 325 321 349 349 336 335 333 340 26 61 55 168 95 86 99 98 87 89 78 60 48 40 21 360 349 336 330 325 334 332 333 334 330 331 346 6 15 43
27 34 6 344 341 340 357 105 113 91 119 105 92 109 93 78 44 26 80 123 110 57 13 162 177 232 251 283 296 298 297 320 0 13 348 13 64 54 47 53 52 34 71 63 335 336 339 332 314 315 317 328 333 323 325 329 318 275 57 85 78 70 82 83 73 90 97 76 58 3 313 291 279 289 290 287 314 319 308 303 304 319 330 321 316
58 24 13 14 359 321 326 324 220 177 267 119 106 102 116 138 88 1 47 82 110 115 95 118 178 203 223 252 278 297 282 299 312 322 315 296 332 56 48 17 2 72 58 312 34 301 282 280 283 298 302 307 310 328 309 294 301 307 311 316 77 77 88 98 108 93 61 57 331 273 272 269 255 260 268 291 301 317 333 327 329 325 322 299 285
5 353 353 35 14 10 355 329 328 316 307 328 252 168 140 127 124 168 117 117 118 121 126 109 119 158 209 248 253 258 281 281 284 295 309 294 286 357 304 246 252 235 206 198 218 250 278 298 294 287 283 262 269 272 294 286 301 302 292 283 320 161 143 126 128 92 116 258 261 259 263 266 295 280 273 284 343 311 321 328 351 341 359 0 358
27 5 354 5 14 42 43 349 328 316 320 334 327 341 314 140 135 141 154 146 128 136 160 139 134 122 159 219 216 224 240 274 278 285 290 295 294 309 335 330 298 311 335 323 328 318 307 293 278 279 274 270 259 248 249 266 280 281 277 281 273 242 206 182 168 164 185 212 250 262 270 261 283 322 323 7 327 291 248 280 345 310 359 351 5
45 42 334 320 355 18 1 9 20 329 304 248 234 272 267 210 177 178 182 185 175 199 177 186 191 188 194 210 204 234 257 261 257 244 251 241 248 260 272 274 284 305 307 306 307 292 289 286 289 296 307 309 284 260 261 256 245 240 253 251 250 250 243 244 236 195 218 189 223 278 299 321 321 303 315 319 299 292 263 240 241 306 343 345 3
24 11 334 339 347 348 353 325 356 331 308 281 252 214 210 223 221 248 238 180 177 184 215 228 206 203 186 183 184 218 261 268 253 208 209 214 198 195 218 235 241 264 258 280 315 297 284 290 307 320 325 314 312 301 275 267 267 242 231 247 243 242 249 248 251 251 239 196 247 256 273 303 299 302 319 319 304 306 334 257 275 241 319 58 238
61 334 310 305 303 323 322 329 343 353 328 280 282 295 248 234 237 223 260 231 195 226 180 214 227 213 201 227 189 185 208 223 229 199 226 232 248 247 254 249 243 243 246 236 207 302 313 325 321 330 317 319 308 299 297 281 273 265 241 227 231 239 231 231 242 256 259 225 237 235 264 289 301 304 320 303 302 301 292 205 263 146 14 329 325
318 296 296 301 288 282 283 311 329 327 337 318 207 233 295 295 235 233 255 263 227 210 213 228 239 241 231 251 254 244 250 270 223 221 234 236 231 240 246 248 247 242 205 129 79 296 314 328 318 323 308 306 292 288 281 274 260 253 247 230 222 232 238 234 243 247 259 256 259 247 254 252 263 284 291 289 289 295 316 303 182 182 230 260 290
213 258 253 255 268 269 271 266 263 287 308 277 226 203 219 266 306 259 222 228 240 238 238 235 225 213 218 222 249 294 272 235 230 247 255 256 249 253 256 250 245 209 188 179 339 323 300 291 307 317 328 330 321 302 296 267 267 263 268 244 240 233 230 239 239 227 243 235 245 262 267 264 267 286 290 286 288 293 297 315 306 279 269 235 239
199 233 241 249 246 248 267 270 249 220 236 230 220 195 202 219 234 282 295 246 233 237 246 246 239 226 214 217 221 232 253 270 268 259 255 263 271 265 263 263 252 186 146 112 84 312 323 254 282 310 313 322 350 22 26 22 15 2 310 259 269 257 256 318 35 337 318 324 340 316 314 318 324 310 288 283 279 281 299 298 302 292 281 295 293
206 209 225 234 237 248 241 238 236 230 219 225 230 222 229 207 216 221 246 285 308 282 254 246 244 244 240 231 228 232 241 249 258 261 259 261 272 288 286 268 258 189 199 156 163 193 159 112 142 75 8 41 42 45 41 25 15 11 4 357 319 283 268 126 101 93 53 18 26 350 334 303 262 272 307 310 308 259 272 282 284 289 273 243 248
217 225 227 223 218 230 233 224 220 222 228 232 233 234 239 236 220 214 218 231 240 250 269 274 258 225 234 241 234 231 232 236 242 250 259 267 270 291 320 337 175 255 316 120 156 170 182 167 133 136 122 94 83 77 64 48 38 31 22 16 23 24 39 52 58 56 59 54 47 27 2 10 24 40 37 14 0 10 348 326 324 285 253 269 264
225 226 232 230 229 229 229 227 218 220 229 234 234 233 234 236 238 239 237 232 232 243 263 250 254 264 238 241 243 230 222 227 234 246 260 271 279 349 326 292 308 292 267 268 163 167 179 182 145 152 134 113 110 97 104 96 89 86 72 72 62 48 46 43 36 45 47 59 49 24 27 29 26 23 24 49 30 358 356 360 341 323 258 235 266
231 234 236 238 232 232 235 229 224 227 231 238 237 239 239 239 238 243 244 243 247 245 240 261 279 290 274 251 243 238 229 228 229 239 257 263 258 187 217 235 263 260 228 202 145 126 140 183 162 143 122 107 96 102 94 78 69 67 63 62 74 75 64 60 51 47 50 49 41 38 36 31 21 23 27 28 12 12 6 358 354 350 0 13 22
230 233 238 238 237 239 240 236 238 235 236 238 238 233 237 237 238 235 236 243 242 242 257 261 248 246 257 266 215 200 218 219 230 267 268 276 259 185 209 233 215 203 197 161 145 141 148 160 156 130 127 115 108 101 91 75 69 70 73 76 75 84 87 72 58 56 57 54 46 42 41 33 22 17 21 33 18 7 0 358 0 355 350 352 19
278 264 261 255 251 250 239 242 245 244 245 242 244 242 241 243 244 245 242 242 242 242 244 247 253 248 234 235 243 196 163 176 193 212 225 238 234 222 200 141 145 146 122 142 141 138 135 136 144 126 125 118 113 104 94 82 74 71 82 93 84 66 55 52 57 52 60 57 48 39 48 33 24 22 25 26 12 358 347 346 350 354 349 344 335
313 320 310 311 308 297 298 301 300 295 283 276 268 254 249 248 248 245 244 241 247 245 243 241 248 241 233 199 203 171 184 200 192 195 210 216 225 239 89 151 164 151 153 151 151 148 136 146 150 131 121 116 113 107 103 100 95 100 99 105 105 91 73 72 74 68 67 70 73 53 51 44 27 18 27 21 0 342 343 338 333 331 340 342 339
343 329 328 322 311 303 295 289 284 281 285 287 289 295 296 294 300 305 307 302 294 286 268 255 251 259 255 220 200 180 185 185 190 192 195 195 179 171 196 172 151 150 152 147 155 155 151 151 148 136 129 126 128 121 115 104 105 101 107 105 95 94 83 72 73 74 64 58 54 49 40 41 34 36 23 350 335 341 336 332 333 340 347 7 15
342 339 332 328 323 321 310 301 288 284 280 278 279 271 272 273 289 296 307 300 288 287 308 304 282 266 253 222 194 187 180 189 174 176 184 168 162 194 180 159 155 154 152 154 154 151 153 149 153 148 142 141 123 119 110 105 117 122 121 115 113 111 98 96 89 87 81 72 57 53 47 38 36 30 13 357 4 355 353 360 0 349 348 9 22
337 332 325 319 320 314 310 299 292 293 295 293 284 279 268 263 262 252 247 257 265 263 276 279 288 279 281 256 209 196 182 160 151 156 149 158 167 173 153 152 164 154 147 142 148 146 150 150 152 152 143 149 150 140 132 141 138 127 128 128 132 132 134 141 139 136 149 98 72 55 52 42 36 28 17 11 5 18 26 22 18 14 2 1 9
336 330 323 320 312 305 299 292 294 286 282 279 278 274 271 268 267 266 261 259 263 243 223 232 243 255 249 280 322 327 48 195 160 150 153 150 148 139 144 155 151 140 134 137 143 148 141 139 144 160 161 165 166 158 155 156 142 137 140 141 143 148 152 160 164 170 159 129 114 81 66 58 48 44 36 23 24 34 29 28 25 19 15 12 3
337 334 329 326 323 319 314 308 304 298 292 289 283 274 267 266 267 267 265 262 262 271 273 260 236 240 262 226 213 204 227 212 162 153 142 139 131 139 140 136 132 132 125 130 152 152 140 144 149 147 165 199 191 163 160 162 145 144 153 150 152 161 171 173 179 176 164 142 137 122 103 86 72 62 60 51 43 48 43 32 24 25 27 22 20
331 327 325 323 321 319 317 315 311 308 306 303 300 298 294 288 281 275 269 265 263 261 259 252 246 224 229 229 216 195 208 168 170 156 140 137 127 125 124 127 126 128 135 132 127 117 130 144 143 151 180 223 191 158 157 159 161 157 160 160 162 169 175 174 164 156 166 146 132 129 122 102 93 92 88 82 70 64 62 44 42 42 39 30 24
333 331 328 327 326 322 320 319 321 324 323 318 310 303 297 293 290 289 283 275 274 271 274 267 251 245 245 236 183 186 184 167 162 161 149 130 127 129 123 120 107 105 115 129 135 127 138 151 157 169 166 187 163 141 169 165 150 144 139 148 148 156 165 166 167 165 156 150 142 125 118 109 110 102 99 90 80 75 74 62 56 49 46 39 32
337 334 331 328 328 329 330 332 331 327 323 316 310 302 298 298 299 298 305 319 327 325 329 4 21 25 16 359 356 97 83 123 164 120 114 121 130 140 137 131 154 178 145 107 188 161 160 172 175 126 88 91 85 130 145 141 129 131 117 138 157 169 173 168 165 166 155 150 149 148 131 120 119 115 110 102 97 93 80 64 59 55 49 41 35
348 346 342 342 340 340 340 337 333 335 334 333 328 326 329 335 350 8 22 33 34 38 43 38 32 38 40 27 22 35 30 35 31 28 35 51 75 59 56 31 253 219 218 220 203 185 171 114 109 110 101 89 90 120 131 136 139 154 172 195 201 196 177 171 173 178 161 147 143 130 119 121 122 123 122 119 120 114 110 109 89 79 62 56 47
359 354 354 353 358 359 358 1 7 6 4 4 5 5 5 12 18 21 28 35 41 38 39 47 52 50 50 43 35 31 31 33 21 17 19 34 46 44 32 338 346 14 304 296 328 61 96 115 116 106 106 107 117 132 141 149 169 182 190 201 200 177 181 189 198 189 177 172 163 144 135 133 133 140 143 143 148 137 121 120 115 98 79 61 47
4 4 8 12 12 11 16 24 23 24 22 19 25 30 21 29 35 28 31 35 41 42 42 41 43 45 47 41 36 32 26 20 22 25 25 24 20 3 292 271 288 318 342 20 100 103 112 115 116 115 119 124 129 144 162 176 179 190 202 184 168 179 192 192 201 207 204 194 160 137 134 142 147 146 153 158 146 140 150 147 137 123 114 104 87